| time (UTC) | temp F | wind direction | speed MPH | gust MPH | rain 1hr in | rain 24hr in | rain mn in | humidity % | barometer mb |
| 20260904090007 | 0 | 0.0 | 0.0 | 0.00 | 0.00 | 0.00 | 1009.6 | ||
| 20260904084602 | 0 | 0.0 | 0.0 | 0.00 | 0.00 | 0.00 | 1009.4 | ||
| 20260904083057 | 0 | 0.0 | 0.0 | 0.00 | 0.00 | 0.00 | 1009.4 | ||
| 20260904081617 | 0 | 0.0 | 0.0 | 0.00 | 0.00 | 0.00 | 1009.8 | ||
| 20260904080049 | 0 | 0.0 | 0.0 | 0.00 | 0.00 | 0.00 | 1009.9 | ||
| 20260904074602 | 0 | 0.0 | 0.0 | 0.00 | 0.00 | 0.00 | 1009.9 | ||
| 20260904073058 | 0 | 0.0 | 0.0 | 0.00 | 0.00 | 0.00 | 1010.0 | ||
| 20260904071539 | 0 | 0.0 | 0.0 | 0.00 | 0.00 | 0.00 | 1010.0 | ||
| 20260904070031 | 0 | 0.0 | 0.0 | 0.00 | 0.00 | 0.00 | 1009.7 | ||
| 20260904064526 | 0 | 0.0 | 0.0 | 0.00 | 0.00 | 0.00 | 1010.0 | ||
| 20260904063021 | 0 | 0.0 | 0.0 | 0.00 | 0.00 | 0.00 | 1010.0 | ||
| 20260904061518 | 0 | 0.0 | 0.0 | 0.00 | 0.00 | 0.00 | 1010.3 | ||
| 20260904060013 | 0 | 0.0 | 0.0 | 0.00 | 0.00 | 0.00 | 1010.3 | ||
| 20260904054511 | 0 | 0.0 | 0.0 | 0.00 | 0.00 | 0.00 | 1011.0 | ||
| 20260904053004 | 0 | 0.0 | 0.0 | 0.00 | 0.00 | 0.00 | 1010.9 | ||
| 20260904051607 | 0 | 0.0 | 0.0 | 0.00 | 0.00 | 0.00 | 1011.0 | ||
| 20260904050056 | 0 | 0.0 | 0.0 | 0.00 | 0.00 | 0.00 | 1011.1 | ||
| 20260904044551 | 0 | 0.0 | 0.0 | 0.00 | 0.00 | 0.00 | 1011.1 | ||
| 20260904043057 | 0 | 0.0 | 0.0 | 0.00 | 0.00 | 0.00 | 1011.3 | ||
| 20260904041543 | 0 | 0.0 | 0.0 | 0.00 | 0.00 | 0.00 | 1011.0 | ||
| 20260904040038 | 0 | 0.0 | 0.0 | 0.00 | 0.00 | 0.00 | 1011.3 | ||
| 20260904034533 | 0 | 0.0 | 0.0 | 0.00 | 0.00 | 0.00 | 1011.3 | ||
| 20260904033030 | 0 | 0.0 | 0.0 | 0.00 | 0.00 | 0.00 | 1011.4 | ||
| 20260904031525 | 0 | 0.0 | 0.0 | 0.00 | 0.00 | 0.00 | 1011.5 | ||
| 20260904030021 | 0 | 0.0 | 0.0 | 0.00 | 0.00 | 0.00 | 1011.4 | ||
| 20260904024518 | 0 | 0.0 | 0.0 | 0.00 | 0.00 | 0.00 | 1011.5 | ||
| 20260904023022 | 0 | 0.0 | 0.0 | 0.00 | 0.00 | 0.00 | 1011.7 | ||
| 20260904021507 | 0 | 0.0 | 0.0 | 0.00 | 0.00 | 0.00 | 1011.6 | ||
| 20260904014643 | 69 | 61 | 0.0 | 0.0 | 0.00 | 0.00 | 0.00 | 94 | 1011.9 |
| 20260904013102 | 69 | 61 | 0.0 | 0.0 | 0.00 | 0.00 | 0.00 | 94 | 1011.8 |
| 20260904011600 | 69 | 61 | 0.0 | 0.0 | 0.00 | 0.00 | 0.00 | 94 | 1012.0 |
| 20260904010059 | 69 | 148 | 0.0 | 0.0 | 0.00 | 0.00 | 0.00 | 94 | 1012.1 |
| 20260904004603 | 69 | 148 | 0.0 | 0.0 | 0.00 | 0.00 | 0.00 | 93 | 1011.9 |
| 20260904003102 | 70 | 148 | 0.0 | 0.0 | 0.00 | 0.00 | 0.00 | 93 | 1011.6 |
| 20260904001600 | 70 | 148 | 0.0 | 0.0 | 0.00 | 0.00 | 0.00 | 92 | 1011.6 |
| 20260904000139 | 70 | 148 | 0.0 | 0.0 | 0.00 | 0.00 | 0.00 | 91 | 1011.2 |
| 20260903234556 | 71 | 148 | 0.0 | 0.0 | 0.00 | 0.00 | 0.00 | 91 | 1011.4 |
| 20260903233056 | 72 | 148 | 0.0 | 0.0 | 0.00 | 0.00 | 0.00 | 90 | 1011.0 |
| 20260903231608 | 72 | 148 | 0.0 | 0.0 | 0.00 | 0.00 | 0.00 | 89 | 1011.3 |
| 20260903230104 | 73 | 148 | 0.0 | 0.0 | 0.00 | 0.00 | 0.00 | 89 | 1011.4 |
| 20260903224557 | 74 | 148 | 0.0 | 0.0 | 0.00 | 0.00 | 0.00 | 88 | 1011.2 |
| 20260903223053 | 74 | 147 | 0.0 | 0.0 | 0.00 | 0.00 | 0.00 | 87 | 1011.2 |
| 20260903221552 | 75 | 147 | 0.0 | 0.0 | 0.00 | 0.00 | 0.00 | 87 | 1011.6 |
| 20260903220106 | 75 | 214 | 0.0 | 0.0 | 0.00 | 0.00 | 0.00 | 86 | 1011.7 |
| 20260903214554 | 76 | 214 | 0.0 | 0.0 | 0.00 | 0.00 | 0.00 | 85 | 1011.7 |
| 20260903213054 | 76 | 207 | 0.0 | 0.0 | 0.00 | 0.00 | 0.00 | 84 | 1011.6 |
| 20260903211548 | 76 | 200 | 0.0 | 0.0 | 0.00 | 0.00 | 0.00 | 84 | 1011.5 |
| 20260903210051 | 76 | 192 | 0.0 | 0.0 | 0.00 | 0.00 | 0.00 | 84 | 1011.5 |
| 20260903204546 | 76 | 1 | 0.0 | 0.0 | 0.00 | 0.00 | 0.00 | 83 | 1011.6 |
| 20260903203045 | 77 | 176 | 0.0 | 0.0 | 0.00 | 0.00 | 0.00 | 82 | 1011.5 |
| 20260903201544 | 77 | 25 | 0.0 | 0.0 | 0.00 | 0.00 | 0.00 | 82 | 1011.7 |
| 20260903200042 | 77 | 145 | 0.0 | 0.0 | 0.00 | 0.00 | 0.00 | 82 | 1011.6 |
| 20260903194548 | 76 | 12 | 0.0 | 0.0 | 0.00 | 0.00 | 0.00 | 82 | 1011.9 |
| 20260903193043 | 77 | 75 | 0.0 | 0.0 | 0.00 | 0.00 | 0.00 | 81 | 1012.2 |
| 20260903191543 | 76 | 215 | 0.0 | 0.0 | 0.00 | 0.00 | 0.00 | 82 | 1012.2 |
| 20260903190042 | 75 | 215 | 0.0 | 0.0 | 0.00 | 0.00 | 0.00 | 83 | 1012.2 |
| 20260903184533 | 76 | 198 | 0.0 | 0.0 | 0.00 | 0.00 | 0.00 | 81 | 1012.4 |
| 20260903183030 | 75 | 133 | 0.0 | 0.0 | 0.00 | 0.00 | 0.00 | 83 | 1012.6 |
| 20260903181541 | 74 | 98 | 0.0 | 0.0 | 0.00 | 0.00 | 0.00 | 83 | 1012.6 |
| 20260903180025 | 73 | 233 | 0.0 | 0.0 | 0.00 | 0.00 | 0.00 | 84 | 1012.7 |
| 20260903174523 | 73 | 103 | 0.0 | 0.0 | 0.00 | 0.00 | 0.00 | 85 | 1012.9 |
| 20260903173022 | 73 | 98 | 0.0 | 0.0 | 0.00 | 0.00 | 0.00 | 86 | 1013.1 |
| 20260903171531 | 73 | 77 | 0.0 | 0.0 | 0.00 | 0.00 | 0.00 | 86 | 1013.1 |
| 20260903170017 | 72 | 67 | 0.0 | 0.0 | 0.00 | 0.00 | 0.00 | 87 | 1013.0 |
| 20260903164513 | 72 | 143 | 0.0 | 0.0 | 0.00 | 0.00 | 0.00 | 87 | 1012.9 |
| 20260903163013 | 71 | 101 | 0.0 | 0.0 | 0.00 | 0.00 | 0.00 | 87 | 1012.9 |
| 20260903161509 | 71 | 103 | 0.0 | 0.0 | 0.00 | 0.00 | 0.00 | 88 | 1013.1 |
| 20260903160008 | 69 | 103 | 0.0 | 0.0 | 0.00 | 0.00 | 0.00 | 90 | 1013.0 |
| 20260903154504 | 68 | 16 | 0.0 | 0.0 | 0.00 | 0.00 | 0.00 | 92 | 1013.1 |
| 20260903153100 | 67 | 115 | 0.0 | 0.0 | 0.00 | 0.00 | 0.00 | 94 | 1013.4 |
| 20260903151601 | 67 | 158 | 0.0 | 0.0 | 0.00 | 0.00 | 0.00 | 94 | 1013.6 |
| 20260903150114 | 66 | 72 | 0.0 | 0.0 | 0.00 | 0.00 | 0.00 | 95 | 1013.8 |
| 20260903144554 | 65 | 72 | 0.0 | 0.0 | 0.00 | 0.00 | 0.00 | 95 | 1013.7 |
| 20260903143049 | 64 | 72 | 0.0 | 0.0 | 0.00 | 0.00 | 0.00 | 95 | 1013.8 |
| 20260903141554 | 64 | 92 | 0.0 | 0.0 | 0.00 | 0.00 | 0.00 | 95 | 1013.9 |
| 20260903140049 | 64 | 92 | 0.0 | 0.0 | 0.00 | 0.00 | 0.00 | 95 | 1014.1 |
| 20260903134545 | 64 | 92 | 0.0 | 0.0 | 0.00 | 0.00 | 0.00 | 95 | 1014.5 |
| 20260903133043 | 63 | 82 | 0.0 | 0.0 | 0.00 | 0.00 | 0.00 | 95 | 1014.4 |
| 20260903131541 | 63 | 77 | 0.0 | 0.0 | 0.00 | 0.00 | 0.00 | 95 | 1014.3 |
| 20260903130041 | 63 | 77 | 0.0 | 0.0 | 0.00 | 0.00 | 0.00 | 95 | 1014.4 |
| 20260903124539 | 63 | 77 | 0.0 | 0.0 | 0.00 | 0.00 | 0.00 | 95 | 1014.5 |
| 20260903123037 | 62 | 77 | 0.0 | 0.0 | 0.00 | 0.00 | 0.00 | 95 | 1014.7 |
| 20260903121535 | 62 | 77 | 0.0 | 0.0 | 0.00 | 0.00 | 0.00 | 95 | 1014.8 |
| 20260903120040 | 62 | 77 | 0.0 | 0.0 | 0.00 | 0.00 | 0.00 | 95 | 1014.8 |
| 20260903114533 | 0 | 0.0 | 0.0 | 0.00 | 0.00 | 0.00 | 1015.1 | ||
| 20260903113028 | 0 | 0.0 | 0.0 | 0.00 | 0.00 | 0.00 | 1015.1 | ||
| 20260903111523 | 0 | 0.0 | 0.0 | 0.00 | 0.00 | 0.00 | 1015.2 | ||
| 20260903110020 | 0 | 0.0 | 0.0 | 0.00 | 0.00 | 0.00 | 1015.0 | ||
| 20260903104516 | 0 | 0.0 | 0.0 | 0.00 | 0.00 | 0.00 | 1015.3 | ||
| 20260903103010 | 0 | 0.0 | 0.0 | 0.00 | 0.00 | 0.00 | 1015.2 | ||
| 20260903101506 | 0 | 0.0 | 0.0 | 0.00 | 0.00 | 0.00 | 1015.3 | ||
| 20260903100008 | 0 | 0.0 | 0.0 | 0.00 | 0.00 | 0.00 | 1015.0 | ||
| 20260903094601 | 0 | 0.0 | 0.0 | 0.00 | 0.00 | 0.00 | 1015.3 | ||
| 20260903093122 | 0 | 0.0 | 0.0 | 0.00 | 0.00 | 0.00 | 1015.2 | ||
| 20260903091554 | 0 | 0.0 | 0.0 | 0.00 | 0.00 | 0.00 | 1015.3 |